Starlink 35323

operational
NORAD ID: 66070 Int'l Des: 2025-235 Owner: SPXS Country: US Constellation: starlink
NOTLE

About Starlink 35323

Description loading...

Live Position

Loading 3D Globe...

Upcoming Passes

Altitude History

Altitude vs Time

uPlot chart will show altitude changes over time

Two-Line Element Set

1 66070C 25235P 25293.06715278 .00534450 00000+0 79219-3 0 2931
2 66070 53.1589 188.8581 0005793 294.2756 196.8286 16.03609831 18
Epoch: Oct 20, 2025 • Age: 16 hours

Current Status

Altitude 264.7 km
Velocity 7.75 km/s
Sub-Earth Point 27.91°N, 62.96°W
Launch Date Oct 19, 2025
Age 1 days
Type internet

Technical Details

Classification Payload
Mass 575.00 kg
Dry Mass 530.00 kg
Total Mass 575.00 kg
Length 0.30 m
Diameter 4.10 m
Span 29.00 m
Shape Box + pan
Manufacturer SPXS
Bus Type Starlink V2MO
Phase Status In Orbit
Owner/State SPXS/US

Large Constellations

Loading constellations...